Location: Ch�risy
(50.2331°N, 2.9131°E)
Time: 02:19:35
(UTC+00:00)

Cosmos 2142 Rocket - Pass Details

Date: 17 January 2021
Orbit: 952 x 1005 km, 83.0° (Epoch: 24 February)

Event Time Altitude Azimuth Distance (km) Brightness Sun altitude
Rises 17:27:22 0° 351° (N) 3,677 7.4 -10.9°
Reaches altitude 10° 17:29:56 10° 354° (N) 2,718 6.7 -11.3°
Maximum altitude 17:36:07 67° 78° (ENE) 1,036 4.4 -12.2°
Drops below altitude 10° 17:42:12 10° 161° (SSE) 2,676 6.8 -13.2°
Sets 17:44:42 0° 164° (SSE) 3,615 7.5 -13.5°
